This is the latest recevied weather packets stored in our database for station/object KY4GW. If no packets are shown the sender has not sent any weather packets the latest 10 day(s).
| Time | Temp. | Humidity | Pressure | Rain* | Wind** | Luminosity | Snow |
|---|---|---|---|---|---|---|---|
| 1777472530 | 16.67° C | 96% | 1013.1 hPa | 1.02 mm | - | 74 W/m² | - |
| 1777472227 | 16.67° C | 96% | 1013.1 hPa | 0.76 mm | - | 127 W/m² | - |
| 1777471923 | 16.67° C | 96% | 1013.1 hPa | 0.51 mm | - | 48 W/m² | - |
| 1777471316 | 16.67° C | 97% | 1013.1 hPa | 0 mm | - | 124 W/m² | - |
| 1777471013 | 16.67° C | 96% | 1013.1 hPa | 1.02 mm | - | 101 W/m² | - |
| 1777470406 | 16.67° C | 97% | 1013.1 hPa | 1.02 mm | - | 125 W/m² | - |
| 1777469799 | 16.67° C | 97% | 1013.1 hPa | 0.76 mm | - | 97 W/m² | - |
| 1777469189 | 16.11° C | 97% | 1013.1 hPa | 0.51 mm | - | 141 W/m² | - |
| 1777468586 | 16.11° C | 97% | 1013.1 hPa | 0.51 mm | - | 103 W/m² | - |
| 1777468283 | 16.11° C | 97% | 1013.8 hPa | 0.25 mm | - | 47 W/m² | - |
| 1777467979 | 16.11° C | 97% | 1013.8 hPa | 0.25 mm | - | 53 W/m² | - |
| 1777466764 | 16.11° C | 97% | 1013.8 hPa | 0 mm | - | 25 W/m² | - |
| 1777466462 | 16.11° C | 97% | 1013.8 hPa | 0 mm | - | 34 W/m² | - |
| 1777466157 | 16.11° C | 97% | 1013.8 hPa | 0 mm | - | 54 W/m² | - |
| 1777465854 | 16.11° C | 97% | 1013.8 hPa | 0 mm | - | 78 W/m² | - |
| 1777465550 | 16.11° C | 98% | 1013.8 hPa | 0 mm | - | 79 W/m² | - |
| 1777465244 | 16.11° C | 98% | 1013.8 hPa | 0 mm | - | 70 W/m² | - |
| 1777464331 | 15.56° C | 98% | 1013.8 hPa | 0 mm | - | 153 W/m² | - |
| 1777463722 | 15.56° C | 98% | 1013.8 hPa | 2.29 mm | - | 25 W/m² | - |
| 1777463113 | 15.56° C | 98% | 1013.4 hPa | 2.29 mm | - | 20 W/m² | - |
| 1777457647 | 15° C | 97% | 1013.8 hPa | 0 mm | - | 0 W/m² | - |
| 1777457347 | 15° C | 97% | 1013.8 hPa | 0 mm | - | 0 W/m² | - |
| 1777457043 | 15° C | 97% | 1013.8 hPa | 0 mm | - | 0 W/m² | - |
| 1777456738 | 15° C | 97% | 1013.8 hPa | 0 mm | - | 0 W/m² | - |
| 1777456437 | 15° C | 97% | 1013.8 hPa | 0 mm | - | 0 W/m² | - |
* Rain latest hour (hover to see other rain measurements)
** Current wind speed in m/s (hover to see current wind gust speed)